Skip Page Navigation
NASA JPL Caltech
NASA Logo - Jet Propulsion Laboratory + View the NASA Portal
+ Center for Near-Earth Object Studies
JPL Home Earth Solar System Stars & Galaxies Technology
JPL Solar System Dynamics
BODIES ORBITS EPHEMERIDES TOOLS PHYSICAL DATA DISCOVERY FAQ SITE MAP
IMPORTANT: The SSD Announcement email list is now available. Major changes are coming in the near future, including possible hostname and/or URL changes. To be notified of such changes, subscribe to this email list.

Please visit this page for more details.


JPL Small-Body Database Browser
Search: [ help ]  
305878 (2009 FN10)
Classification: Main-belt Asteroid          SPK-ID: 2305878
Ephemeris | Orbit Diagram | Orbital Elements | Mission Design | Physical Parameters | Discovery Circumstances | Close-Approach Data ]

[ show orbit diagram ]
Orbital Elements at Epoch 2458600.5 (2019-Apr-27.0) TDB
Reference: JPL 10 (heliocentric ecliptic J2000)
 Element Value Uncertainty (1-sigma)   Units 
e .1395013538096532 6.7868e-08  
a 2.372725485391289 1.9028e-08 au
q 2.041727067960537 1.6306e-07 au
i .6312456810172346 5.9654e-06 deg
node 206.0438721766928 0.0006763 deg
peri 268.7133590172668 0.00067721 deg
M 323.7044801694935 2.8565e-05 deg
tp 2458735.092292184317
(2019-Sep-08.59229218)
0.00010591 TDB
period 1334.964354075154
3.65
1.6058e-05
4.396e-08
d
yr
n .2696701218283865 3.2439e-09 deg/d
Q 2.70372390282204 2.1682e-08 au
  Orbit Determination Parameters
   # obs. used (total)      144  
   data-arc span      8050 days (22.04 yr)  
   first obs. used      1996-09-21  
   last obs. used      2018-10-06  
   planetary ephem.      DE431  
   SB-pert. ephem.      SB431-N16  
   condition code      0  
   norm. resid. RMS      .53951  
   source      ORB  
   producer      Otto Matic  
   solution date      2019-Jul-14 12:03:32  

Additional Information
 Earth MOID = 1.05854 au 
 Jupiter MOID = 2.38511 au 
 T_jup = 3.530 
[ show covariance matrix ]

Ephemeris | Orbit Diagram | Orbital Elements | Mission Design | Physical Parameters | Discovery Circumstances | Close-Approach Data ]

Physical Parameter Table
Parameter Symbol Value Units Sigma Reference Notes
absolute magnitude H 17.8   n/a MPO455253  

305878 (2009 FN10)          Discovered 2009-Mar-18 by Mt. Lemmon Survey at Mount Lemmon
Reference: 20111110/Numbers.arcLast Updated: 2011-11-14

[ show close-approach data ]
Alternate Designations
 2009 FN10 = 2007 RT176 
Ephemeris | Orbit Diagram | Orbital Elements | Mission Design | Physical Parameters | Discovery Circumstances | Close-Approach Data ]
ABOUT SSD CREDITS/AWARDS PRIVACY/COPYRIGHT GLOSSARY LINKS
FirstGov
(server date/time)  
NASA Home Page
Site Manager:   Ryan S. Park
Webmaster  Alan B. Chamberlin